Location: Larkspur
(54.4391°N, 113.7691°W)
Time: 09:32:04
(UTC+00:00)

UNISAT 6 - Visible Passes

Search period start: 02 December 2023 00:00
Search period end: 12 December 2023 00:00
Orbit: 598 x 673 km, 97.7° (Epoch: 01 December)

Date Brightness Start Highest point End Pass type
(mag) Time Alt. Az. Time Alt. Az. Time Alt. Az.
02 Dec ? 01:16:45 10° N 01:21:15 66° WNW 01:25:37 10° SSW visible
02 Dec ? 02:54:42 10° NNW 02:56:52 13° NW 02:59:00 10° W visible
03 Dec ? 00:02:39 10° NNE 00:06:38 30° E 00:10:31 10° SSE visible
03 Dec ? 01:38:57 10° N 01:43:14 43° WNW 01:47:25 10° SW visible
04 Dec ? 00:24:30 10° NNE 00:28:51 45° E 00:33:05 10° S visible
04 Dec ? 02:01:15 10° N 02:05:09 29° WNW 02:08:59 10° WSW visible
05 Dec ? 00:46:29 10° NNE 00:51:00 71° ESE 00:55:22 10° S visible
05 Dec ? 02:23:39 10° N 02:27:00 21° WNW 02:30:16 10° WSW visible
06 Dec ? 01:08:32 10° NNE 01:13:03 76° WNW 01:17:24 10° SSW visible
06 Dec ? 02:46:16 10° NNW 02:48:45 15° NW 02:51:13 10° W visible
06 Dec ? 23:54:34 10° NE 23:58:18 25° E 00:01:56 10° SSE visible
07 Dec ? 01:30:40 10° N 01:35:00 49° WNW 01:39:13 10° SW visible
07 Dec ? 03:09:36 10° NW 03:10:26 10° NW 03:11:15 10° WNW visible
08 Dec ? 00:16:17 10° NNE 00:20:29 38° E 00:24:33 10° SSE visible
08 Dec ? 01:52:52 10° N 01:56:53 33° WNW 02:00:48 10° SW visible
09 Dec ? 00:38:09 10° NNE 00:42:35 60° ESE 00:46:52 10° S visible
09 Dec ? 02:15:11 10° N 02:18:41 23° WNW 02:22:07 10° WSW visible
10 Dec ? 01:00:07 10° NNE 01:04:35 88° WNW 01:08:56 10° SSW visible
10 Dec ? 02:37:39 10° NNW 02:40:25 16° NW 02:43:08 10° W visible
10 Dec ? 23:46:16 10° NE 23:49:42 22° E 23:53:04 10° SE visible
11 Dec ? 01:22:09 10° N 01:26:31 57° WNW 01:30:45 10° SSW visible
11 Dec ? 03:00:31 10° NNW 03:02:03 12° NW 03:03:34 10° WNW visible
